Weather History for Richmond, VA

Change the Weather History Date:

Monday, December 5, 2011

  Actual Average Record
Temperature  
Mean Temperature 54 °F 44 °F  
Max Temperature 68 °F 54 °F 78 °F (2001)
Min Temperature 39 °F 34 °F 16 °F (1935)
Degree Days  
Heating Degree Days 11 21  
Month to date heating degree days 93 103  
Since 1 July heating degree days 647 779  
Cooling Degree Days 0 0  
Month to date cooling degree days 0 0  
Year to date cooling degree days 1900 1548  
Growing Degree Days 4 (Base 50)    
Moisture  
Dew Point 48 °F    
Average Humidity 80    
Maximum Humidity 100    
Minimum Humidity 59    
Precipitation  
Precipitation 0.00 in 0.11 in 1.30 in (2005)
Month to date precipitation 0.00 0.57  
Year to date precipitation 45.51 40.91  
Snow  
Snow 0.00 in 0.00 in 4.20 in (2005)
Month to date snowfall 0.0 0.2  
Since 1 July snowfall 0.0 0.4  
Snow Depth 0.00 in    
Sea Level Pressure  
Sea Level Pressure 30.31 in    
Wind  
Wind Speed 5 mph (SE)    
Max Wind Speed 17 mph    
Max Gust Speed 22 mph    
Visibility 5 miles    
Events Fog    
T = Trace of Precipitation, MM = Missing Value Source: NWS Daily Summary

Daily Weather History Graph

Daily Weather History Graph

Search for Another Location

Airport:

Trip Planner

Search our weather history database for the weather conditions in past years. The results will help you decide how hot, cold, wet, or windy it might be!

Date:

Astronomy

Dec. 05, 2011 Rise Set
Actual Time 7:08 AM EST 4:50 PM EST
Civil Twilight 6:39 AM EST 5:19 PM EST
Nautical Twilight 6:07 AM EST 5:52 PM EST
Astronomical Twilight 5:35 AM EST 6:24 PM EST
Moon 1:44 PM EST (12/5) 2:32 AM EST (12/5)
Length of Visible Light 10h 40m
Length of Day
9h 42m
Waxing Gibbous, 79% of the Moon is Illuminated
Dec 5
Waxing Gibbous
Dec 10
Full
Dec 17
Last Quarter
Dec 24
New
Jan 1
First Quarter

Hourly Weather History & Observations

Time (EST) Temp. Windchill Dew Point Humidity Pressure Visibility Wind Dir Wind Speed Gust Speed Precip Events Conditions
12:54 AM 41.0 °F - 39.0 °F 93% 30.40 in 8.0 mi Calm Calm - N/A Fog Patches of Fog
1:54 AM 41.0 °F - 39.0 °F 93% 30.39 in 8.0 mi Calm Calm - N/A Fog Patches of Fog
2:01 AM 39.2 °F 37.0 °F 37.4 °F 93% 30.37 in 2.5 mi ESE 3.5 mph - N/A   Mostly Cloudy
2:11 AM 39.2 °F 35.9 °F 37.4 °F 93% 30.37 in 0.5 mi ESE 4.6 mph - N/A Fog Fog
2:23 AM 39.2 °F 35.0 °F 39.2 °F 100% 30.36 in 0.5 mi ESE 5.8 mph - N/A Fog Fog
2:31 AM 42.8 °F 40.1 °F 42.8 °F 100% 30.36 in 0.1 mi SE 4.6 mph - N/A Fog Fog
2:54 AM 44.1 °F 42.5 °F 43.0 °F 96% 30.37 in 0.1 mi SE 3.5 mph - N/A Fog Fog
3:54 AM 43.0 °F - 43.0 °F 100% 30.36 in 0.1 mi Calm Calm - N/A Fog Fog
4:54 AM 44.6 °F - 44.6 °F 100% 30.33 in 0.1 mi Calm Calm - N/A Fog Fog
5:01 AM 44.6 °F - 44.6 °F 100% 30.33 in 0.2 mi Calm Calm - N/A Fog Fog
5:08 AM 44.6 °F - 44.6 °F 100% 30.33 in 0.1 mi Calm Calm - N/A Fog Fog
5:54 AM 44.6 °F 43.1 °F 44.6 °F 100% 30.33 in 0.1 mi ENE 3.5 mph - N/A Fog Fog
6:20 AM 44.6 °F 43.1 °F 44.6 °F 100% 30.33 in 0.2 mi East 3.5 mph - N/A Fog Fog
6:54 AM 45.0 °F 43.5 °F 44.1 °F 97% 30.36 in 0.2 mi NNW 3.5 mph - N/A Fog Fog
7:32 AM 44.6 °F - 44.6 °F 100% 30.35 in 1.0 mi Calm Calm - N/A   Overcast
7:54 AM 46.0 °F 44.8 °F 45.0 °F 96% 30.37 in 1.2 mi NW 3.5 mph - N/A   Overcast
8:30 AM 46.4 °F - 44.6 °F 93% 30.35 in 2.5 mi Calm Calm - N/A   Overcast
8:54 AM 46.9 °F - 46.0 °F 97% 30.37 in 2.5 mi Calm Calm - N/A   Overcast
9:54 AM 51.1 °F - 48.0 °F 89% 30.36 in 2.5 mi Calm Calm - N/A   Overcast
10:14 AM 51.8 °F - 48.2 °F 88% 30.35 in 6.0 mi Calm Calm - N/A   Overcast
10:54 AM 57.0 °F - 50.0 °F 77% 30.35 in 10.0 mi Calm Calm - N/A   Mostly Cloudy
11:54 AM 62.1 °F - 51.1 °F 67% 30.32 in 10.0 mi SSE 4.6 mph - N/A   Overcast
12:54 PM 64.0 °F - 52.0 °F 65% 30.29 in 10.0 mi South 9.2 mph - N/A   Mostly Cloudy
1:54 PM 66.0 °F - 53.1 °F 63% 30.27 in 10.0 mi South 4.6 mph - N/A   Overcast
2:54 PM 68.0 °F - 54.0 °F 61% 30.24 in 10.0 mi SSE 6.9 mph - N/A   Mostly Cloudy
3:54 PM 66.0 °F - 54.0 °F 65% 30.23 in 10.0 mi SE 11.5 mph - N/A   Mostly Cloudy
4:54 PM 63.0 °F - 54.0 °F 72% 30.24 in 10.0 mi SSE 12.7 mph - N/A   Mostly Cloudy
5:54 PM 60.1 °F - 55.0 °F 83% 30.23 in 10.0 mi SE 10.4 mph - N/A   Mostly Cloudy
6:54 PM 59.0 °F - 55.0 °F 87% 30.23 in 10.0 mi SSE 9.2 mph - N/A   Overcast
7:54 PM 57.9 °F - 55.0 °F 90% 30.24 in 10.0 mi South 4.6 mph - N/A   Mostly Cloudy
8:54 PM 57.9 °F - 55.0 °F 90% 30.23 in 10.0 mi SE 8.1 mph - N/A   Mostly Cloudy
9:54 PM 60.1 °F - 55.9 °F 86% 30.22 in 10.0 mi SSE 8.1 mph - N/A   Overcast
10:54 PM 59.0 °F - 55.4 °F 88% 30.19 in 10.0 mi SSE 8.1 mph - N/A   Overcast
11:54 PM 59.0 °F - 55.9 °F 90% 30.19 in 10.0 mi SSE 4.6 mph - N/A   Overcast